ALOS (DAICHI)

Last updated on Thu Oct 30 2025 00:02:15 GMT+0000 (Coordinated Universal Time)

1 28931U 06002A 25302.43252803 .00002503 00000+0 43271-3 0 9999 2 28931 98.1017 254.2565 0001727 54.8303 305.3064 14.69264072 54203
UTC large
Height (km)
Speed (km/s)
/
Latitude / Longitude
Inclination (degrees)
Orbital Period (minutes)
Azimuth
Elevation
Range (km)
Doppler Factor

Next 0 passes for location: London (51.5072 / 0.1276)

Sorry there are no passes over London.